Location: Unspecified
(0.0000°N, 0.0000°E)
Time: 18:41:53
(UTC+00:00)

Falcon 9 debris - Visible Passes

Search period start: 19 August 2019 00:00
Search period end: 29 August 2019 00:00
Orbit: 432 x 438 km, 53.0° (Epoch: 18 August)

Date Brightness Start Highest point End Pass type
(mag) Time Alt. Az. Time Alt. Az. Time Alt. Az.
25 Aug 4.7 19:40:08 10° NW 19:42:07 32° NW 19:42:07 32° NW visible
26 Aug 3.5 18:57:58 10° NNW 19:01:15 43° NE 19:02:23 31° ESE visible
27 Aug 6.1 19:54:26 10° WSW 19:55:46 12° SW 19:56:06 12° SW visible
28 Aug 5.5 19:10:42 10° WNW 19:13:25 22° SW 19:16:09 10° S visible
